Regional Weather Roundup
Issued by NWS

Home | Current Version | Previous Version | Graphics & Text | Print | Product List | Glossary On
Versions: 1 2 3 4 5 6 7 8 9 10 11 12 13 14 15 16 17 18 19 20 21 22 23 24 25 26 27 28 29 30 31 32 33 34 35 36 37 38 39 40 41 42 43 44 45 46 47 48 49 50
000
ASUS45 KCYS 151810
RWRWY

WYOMING REGIONAL WEATHER ROUNDUP
NATIONAL WEATHER SERVICE CHEYENNE WY
1200 PM MDT TUE AUG 15 2017

NOTE:  "FAIR" INDICATES FEW OR NO CLOUDS BELOW 12,000 FEET
WITH NO SIGNIFICANT WEATHER AND/OR OBSTRUCTIONS TO VISIBILITY.

WYZ001-151900-
YELLOWSTONE NATIONAL PARK

CITY           SKY/WX    TMP DP  RH WIND       PRES   REMARKS
LK YELLOWSTONE   N/A     55  43  63 SE5       30.14F
6HR MIN TEMP:  39; 6HR MAX TEMP:  57;

W YELLOWSTONE  NOT AVBL

$$
WYZ002>013-054>058-071-098>099-151900-
NORTHERN WYOMING

CITY           SKY/WX    TMP DP  RH WIND       PRES   REMARKS
JACKSON        FAIR      64  43  46 VRB3      30.06F
CODY           FAIR      64  46  52 SW8       30.01S
GREYBULL       FAIR      67  54  63 VRB5      29.94R
6HR MIN TEMP:  58; 6HR MAX TEMP:  67; 6HR PCP:  0.02;

WORLAND        FAIR      63  54  72 S3        29.96S
6HR MIN TEMP:  56; 6HR MAX TEMP:  63; 6HR PCP:  0.09;

SHERIDAN       CLOUDY    64  56  75 SE5       29.97R
6HR MIN TEMP:  58; 6HR MAX TEMP:  65; 6HR PCP:  0.09;

BUFFALO        CLOUDY    61  48  62 N13       30.01R
6HR MIN TEMP:  55; 6HR MAX TEMP:  61; 6HR PCP:  0.05;

GILLETTE       CLOUDY    62  57  83 W7        29.95R
6HR MIN TEMP:  55; 6HR MAX TEMP:  63; 6HR PCP:  0.05;

HULETT         CLOUDY    61  59  94 S7        29.97R
NEWCASTLE      LGT RAIN  61  59  94 NW14      29.94S

$$
WYZ014>020-022>026-101>103-151900-
CENTRAL WYOMING

CITY           SKY/WX    TMP DP  RH WIND       PRES   REMARKS
BIG PINEY      FAIR      58  47  66 VRB3      30.10S
6HR MIN TEMP:  48; 6HR MAX TEMP:  58; 6HR PCP: TRACE;

PINEDALE       MOCLDY    55  43  62 CALM      30.11S
DUBOIS         MOCLDY    61  36  39 N6        30.05F
LANDER           N/A    N/A N/A N/A MISG      30.01R
RIVERTON       FAIR      65  47  52 N8G18     30.01S
6HR MIN TEMP:  51; 6HR MAX TEMP:  67; 6HR PCP: TRACE;

CASPER         PTSUNNY   69  51  52 VRB3      29.98F
6HR MIN TEMP:  56; 6HR MAX TEMP:  70; 6HR PCP:  0.36;

DOUGLAS        FAIR      69  52  54 NW7       29.97S
6HR MIN TEMP:  58; 6HR MAX TEMP:  69; 6HR PCP:  0.01;


$$
WYZ021-027>030-104>119-151900-
SOUTHERN WYOMING

CITY           SKY/WX    TMP DP  RH WIND       PRES   REMARKS
EVANSTON       FAIR      61  41  47 VRB6G17   30.11R
6HR MIN TEMP:  47; 6HR MAX TEMP:  64;

KEMMERER         N/A     61  43  51 W9G16     30.12S
FORT BRIDGER   MOCLDY    62  50  64 W8        30.13R
ROCK SPRINGS   FAIR      62  48  60 W10       30.07F
6HR MIN TEMP:  49; 6HR MAX TEMP:  63;

RAWLINS        PTSUNNY   68  45  43 W13       30.06S
6HR MIN TEMP:  51; 6HR MAX TEMP:  68;

SARATOGA       FAIR      66  48  52 N5        30.07F
LARAMIE        FAIR      68  44  42 VRB3      30.07F
6HR MIN TEMP:  44; 6HR MAX TEMP:  69;

CHEYENNE       FAIR      73  52  47 NE6       30.01F
6HR MIN TEMP:  51; 6HR MAX TEMP:  73;

TORRINGTON     FAIR      74  58  57 E8        29.91F
6HR MIN TEMP:  58; 6HR MAX TEMP:  74;

PINE BLUFFS    FAIR      73  54  49 E5        29.97F

$$



USA.gov is the U.S. government's official web portal to all federal, state and local government web resources and services.